Location: ???????
(38.3360°N, 23.6977°E)
Time: 05:33:32
(UTC+00:00)

Cosmos 841 Rocket - Pass Details

Date: 17 November 2025
Orbit: 742 x 768 km, 74.0° (Epoch: 09 December)

Event Time Altitude Azimuth Distance (km) Brightness Sun altitude
Rises 16:29:44 0° 352° (N) 3,244 6.7 -15.5°
Reaches altitude 10° 16:32:27 10° 4° (N) 2,314 5.8 -16.0°
Maximum altitude 16:36:56 28° 63° (ENE) 1,417 4.3 -16.8°
Enters shadow 16:37:08 28° 67° (ENE) 1,419 4.3 -16.9°
